Location: Byszew
(52.1813°N, 19.2693°E)
Time: 18:10:57
(UTC+00:00)

Cosmos 2278 Rocket - Pass Details

Date: 03 March 2021
Orbit: 841 x 845 km, 71.0° (Epoch: 16 April)

Event Time Altitude Azimuth Distance (km) Brightness Sun altitude
Rises 20:23:43 0° 323° (NW) 3,416 6.4 -34.8°
Reaches altitude 10° 20:26:26 10° 313° (NW) 2,476 5.4 -35.1°
Enters shadow 20:30:32 29° 269° (W) 1,518 3.8 -35.6°
